Total_Precipitation_Accumulation
0.09 0.16 0.23 0.25 0.21 0.20 0.17 0.17 0.25 0.35 0.52 0.66 0.76 0.80 0.84 0.87 0.86 0.79 0.84 0.88 0.93 1.04 1.04 0.93 0.88 0.87 0.91 1.00 1.04 1.07 1.28 1.48 1.68 1.87 1.93 1.98 2.04 2.06 2.12 2.15 2.03 2.12 2.19 2.18
0.12 0.18 0.20 0.20 0.23 0.19 0.15 0.14 0.20 0.34 0.55 0.68 0.69 0.81 0.87 0.83 0.81 0.82 0.88 0.92 1.05 1.10 1.09 1.11 1.07 1.07 1.14 1.21 1.32 1.48 1.69 1.84 1.92 1.99 2.04 1.99 2.00 2.02 2.16 2.21 2.26 2.37 2.40 2.42
0.22 0.24 0.27 0.30 0.27 0.22 0.19 0.20 0.27 0.38 0.57 0.69 0.77 0.92 1.05 1.06 0.95 0.95 1.06 1.10 1.21 1.26 1.24 1.29 1.30 1.38 1.52 1.50 1.59 1.76 1.94 2.11 2.13 2.10 2.10 2.06 2.10 2.12 2.12 2.25 2.38 2.42 2.41 2.45
0.30 0.35 0.52 0.43 0.31 0.27 0.27 0.28 0.33 0.45 0.61 0.73 0.86 0.93 1.14 1.29 1.23 1.07 1.03 1.10 1.23 1.31 1.31 1.28 1.33 1.45 1.70 1.80 1.81 1.96 2.08 2.19 2.26 2.30 2.37 2.43 2.51 2.50 2.55 2.61 2.66 2.61 2.55 2.58
0.44 0.54 0.59 0.51 0.40 0.36 0.39 0.51 0.51 0.63 0.88 1.00 1.03 1.23 1.47 1.47 1.35 1.24 1.24 1.21 1.36 1.36 1.32 1.35 1.54 1.63 1.70 1.82 1.85 2.03 2.22 2.38 2.46 2.53 2.59 2.62 2.64 2.77 2.92 3.08 3.15 3.07 3.02 3.06
0.52 0.65 0.76 0.73 0.53 0.48 0.63 1.19 0.97 0.94 1.02 1.03 1.16 1.67 1.75 1.38 1.22 1.22 1.23 1.33 1.48 1.53 1.49 1.58 1.86 1.93 2.02 2.11 2.16 2.24 2.34 2.51 2.71 2.87 2.94 2.91 2.98 3.18 3.37 3.54 3.58 3.60 3.61 3.61
0.62 0.73 0.83 0.73 0.59 0.67 1.28 1.73 1.38 1.26 1.22 1.25 1.47 1.58 1.59 1.44 1.26 1.19 1.22 1.31 1.46 1.54 1.56 1.63 1.85 2.05 2.34 2.47 2.52 2.53 2.57 2.70 2.87 3.03 3.18 3.22 3.34 3.45 3.64 3.80 3.79 3.74 3.69 3.65
0.97 1.15 1.21 0.77 0.77 1.17 1.53 1.34 1.45 1.61 1.64 1.58 1.60 1.42 1.38 1.42 1.44 1.39 1.36 1.39 1.46 1.60 1.68 1.77 1.88 2.14 2.41 2.61 2.75 2.83 2.82 2.98 3.08 3.14 3.00 2.97 3.26 3.49 3.73 3.96 3.92 3.84 3.87 3.71
1.33 1.48 1.30 1.01 1.10 1.18 1.18 1.31 1.43 1.54 1.69 1.75 1.72 1.72 1.61 1.67 1.64 1.56 1.49 1.44 1.44 1.51 1.64 1.73 1.80 2.02 2.43 2.59 2.70 2.80 2.89 2.95 3.09 3.12 3.11 3.18 3.41 3.60 3.83 3.94 3.88 3.78 3.75 3.65
1.56 1.59 1.44 1.34 1.36 1.40 1.42 1.45 1.46 1.51 1.63 1.71 1.74 1.83 1.77 1.72 1.56 1.44 1.37 1.40 1.49 1.57 1.69 1.77 1.70 1.85 2.05 2.26 2.42 2.51 2.58 2.60 2.60 2.72 2.88 3.13 3.44 3.53 3.61 3.65 3.68 3.66 3.55 3.42
1.95 2.04 1.96 1.81 1.80 1.78 1.68 1.72 1.76 1.71 1.69 1.73 1.65 1.69 1.70 1.55 1.40 1.35 1.39 1.35 1.43 1.61 1.62 1.67 1.75 1.76 1.81 1.86 2.06 2.23 2.27 2.28 2.37 2.49 2.68 2.90 3.12 3.27 3.23 3.26 3.48 3.38 3.15 2.97
2.07 2.11 2.29 2.25 2.03 1.96 1.81 1.85 1.87 1.81 1.72 1.67 1.65 1.67 1.63 1.52 1.44 1.40 1.40 1.42 1.44 1.52 1.54 1.57 1.69 1.77 1.75 1.86 2.03 2.08 2.02 2.03 2.06 2.13 2.31 2.49 2.64 2.74 2.80 2.59 2.66 2.58 2.41 2.27
1.75 1.88 2.03 2.17 2.10 2.08 2.08 1.97 1.92 1.93 1.81 1.75 1.66 1.58 1.49 1.48 1.47 1.42 1.44 1.51 1.54 1.57 1.59 1.66 1.68 1.71 1.77 1.95 2.12 2.20 2.10 2.05 2.05 2.08 2.20 2.24 2.26 2.32 2.37 2.28 2.17 2.09 1.91 1.76
1.87 2.08 2.39 2.50 2.37 2.17 2.14 2.04 1.93 2.04 2.08 2.06 1.83 1.60 1.45 1.42 1.42 1.49 1.56 1.66 1.70 1.70 1.68 1.70 1.71 1.68 1.68 1.82 2.02 2.32 2.41 2.35 2.22 2.15 2.16 2.09 2.08 2.16 2.30 2.32 2.19 1.95 1.76 1.56
2.05 2.19 2.39 2.43 2.27 2.13 2.07 2.03 1.99 2.07 2.16 2.09 1.94 1.74 1.60 1.56 1.61 1.64 1.64 1.67 1.70 1.69 1.72 1.69 1.69 1.73 1.76 1.84 1.91 2.08 2.30 2.30 2.18 2.16 2.20 2.28 2.25 2.23 2.30 2.31 2.36 2.25 1.96 1.73
2.09 2.14 2.28 2.30 2.25 2.10 1.97 2.00 2.07 2.00 1.93 1.90 1.89 1.78 1.72 1.59 1.55 1.53 1.62 1.75 1.95 1.94 1.82 1.83 1.82 1.80 1.76 1.75 1.78 1.90 2.04 2.12 2.04 2.02 2.02 2.18 2.25 2.23 2.25 2.36 2.36 2.24 2.02 1.74
2.01 2.16 2.31 2.32 2.20 2.00 1.93 2.03 2.05 1.97 1.83 1.69 1.78 1.73 1.68 1.68 1.73 1.76 1.81 1.81 1.99 2.02 1.85 1.84 1.86 1.79 1.72 1.73 1.78 1.76 1.79 1.79 1.80 1.81 1.88 2.03 2.16 2.19 2.14 2.10 2.14 2.05 1.88 1.62
1.69 1.82 1.94 1.98 1.99 1.89 1.79 1.82 1.91 1.88 1.78 1.71 1.75 1.76 1.73 1.81 1.90 2.00 2.06 2.04 2.03 1.89 1.74 1.74 1.62 1.57 1.52 1.54 1.65 1.68 1.74 1.72 1.61 1.64 1.84 1.95 2.02 2.06 1.97 1.90 1.91 1.88 1.75 1.49
1.52 1.59 1.57 1.64 1.65 1.67 1.66 1.66 1.70 1.71 1.66 1.68 1.77 1.86 1.83 1.87 1.97 2.08 2.14 2.19 2.19 1.96 1.64 1.45 1.39 1.26 1.23 1.20 1.23 1.37 1.53 1.64 1.65 1.68 1.78 1.79 1.79 1.92 1.96 1.94 1.93 1.87 1.70 1.54
1.40 1.48 1.50 1.47 1.39 1.46 1.48 1.51 1.56 1.59 1.57 1.63 1.75 1.77 1.79 1.85 1.91 2.04 2.13 2.16 2.11 1.94 1.65 1.43 1.19 1.04 0.96 0.94 1.02 1.09 1.25 1.42 1.48 1.50 1.55 1.62 1.69 1.81 1.89 1.85 1.84 1.86 1.76 1.64
1.35 1.40 1.37 1.36 1.36 1.39 1.38 1.33 1.37 1.50 1.51 1.53 1.66 1.77 1.85 1.84 1.76 1.89 2.06 2.06 1.94 1.83 1.71 1.59 1.31 1.14 0.98 0.95 0.98 1.04 1.19 1.36 1.37 1.33 1.33 1.44 1.57 1.64 1.67 1.62 1.58 1.55 1.49 1.43
1.40 1.34 1.26 1.25 1.28 1.35 1.40 1.38 1.31 1.31 1.35 1.46 1.54 1.62 1.72 1.70 1.71 1.76 1.74 1.88 1.87 1.90 1.71 1.54 1.36 1.25 1.16 1.06 0.94 1.01 1.14 1.22 1.25 1.21 1.20 1.31 1.49 1.55 1.56 1.57 1.58 1.53 1.46 1.42
1.51 1.42 1.34 1.32 1.28 1.30 1.34 1.34 1.29 1.30 1.45 1.61 1.64 1.66 1.71 1.65 1.67 1.81 1.75 1.55 1.52 1.66 1.51 1.38 1.41 1.32 1.16 1.02 0.97 1.06 1.21 1.29 1.27 1.16 1.13 1.24 1.34 1.39 1.46 1.45 1.49 1.52 1.52 1.44
1.56 1.41 1.40 1.44 1.39 1.37 1.50 1.40 1.34 1.41 1.51 1.62 1.58 1.59 1.66 1.65 1.60 1.49 1.46 1.40 1.35 1.44 1.28 1.22 1.21 1.18 1.15 1.09 1.10 1.14 1.18 1.20 1.23 1.17 1.15 1.17 1.18 1.21 1.29 1.37 1.49 1.55 1.50 1.43
1.58 1.49 1.45 1.58 1.63 1.55 1.61 1.50 1.41 1.45 1.47 1.56 1.50 1.49 1.54 1.52 1.59 1.51 1.38 1.27 1.31 1.33 1.22 1.20 1.15 1.13 1.09 1.16 1.24 1.23 1.23 1.23 1.26 1.22 1.18 1.16 1.15 1.18 1.27 1.42 1.57 1.60 1.53 1.49
1.71 1.73 1.70 1.71 1.67 1.58 1.55 1.45 1.37 1.38 1.52 1.74 1.64 1.47 1.56 1.55 1.47 1.47 1.48 1.37 1.32 1.36 1.30 1.25 1.20 1.19 1.17 1.28 1.39 1.38 1.33 1.31 1.30 1.25 1.26 1.31 1.35 1.38 1.44 1.54 1.57 1.50 1.41 1.34
1.66 1.65 1.66 1.59 1.53 1.54 1.57 1.51 1.45 1.49 1.62 1.86 1.80 1.52 1.52 1.51 1.48 1.51 1.49 1.49 1.44 1.41 1.40 1.34 1.27 1.24 1.24 1.28 1.30 1.30 1.30 1.32 1.31 1.28 1.28 1.31 1.37 1.42 1.40 1.43 1.42 1.33 1.28 1.19